Weather History for KMWH - March, 2013

Change the Weather History Date:

Thursday, March 21, 2013

  Actual Average Record
Temperature  
Mean Temperature 43 °F 45 °F  
Max Temperature 52 °F 57 °F 66 °F (1986)
Min Temperature 34 °F 33 °F 23 °F (2014)
Degree Days  
Heating Degree Days 22 20  
Month to date heating degree days 419 477  
Since 1 July heating degree days 4538 4982  
Cooling Degree Days 0 0  
Month to date cooling degree days 0 0  
Year to date cooling degree days 0 0  
Moisture  
Dew Point 20 °F    
Average Humidity 43    
Maximum Humidity 59    
Minimum Humidity 27    
Precipitation  
Precipitation 0.00 in 0.03 in 0.34 in (1984)
Month to date precipitation 0.57 0.47  
Year to date precipitation 1.02 2.41  
Sea Level Pressure  
Sea Level Pressure 30.03 in    
Wind  
Wind Speed 12 mph (West)    
Max Wind Speed 26 mph    
Max Gust Speed 33 mph    
Visibility 10 miles    
Events      
T = Trace of Precipitation, MM = Missing Value Source: NWS Daily Summary

Daily Weather History Graph

Daily Weather History Graph

Search for Another Location

Airport or City:

Trip Planner

Search our weather history database for the weather conditions in past years. The results will help you decide how hot, cold, wet, or windy it might be!

Date:

Astronomy

Mar. 21, 2013 Rise Set
Actual Time 6:57 AM PDT 7:11 PM PDT
Civil Twilight 6:27 AM PDT 7:42 PM PDT
Nautical Twilight 5:51 AM PDT 8:18 PM PDT
Astronomical Twilight 5:14 AM PDT 8:55 PM PDT
Moon 1:27 PM PDT (3/21) 3:42 AM PDT (3/21)
Length of Visible Light 13h 15m
Length of Day
12h 14m
Waxing Gibbous, 69% of the Moon is Illuminated
Mar 21
Waxing Gibbous
Mar 27
Full
Apr 2
Last Quarter
Apr 10
New
Apr 18
First Quarter

Hourly Weather History & Observations

Time (PDT) Temp. Windchill Dew Point Humidity Pressure Visibility Wind Dir Wind Speed Gust Speed Precip Events Conditions
12:52 AM 37.0 °F 29.8 °F 19.0 °F 48% 29.86 in 10.0 mi WSW 10.4 mph - N/A   Clear
1:52 AM 39.9 °F 33.9 °F 17.1 °F 40% 29.89 in 10.0 mi SW 9.2 mph - N/A   Clear
2:52 AM 37.9 °F 30.9 °F 19.0 °F 47% 29.92 in 10.0 mi WSW 10.4 mph - N/A   Clear
3:52 AM 36.0 °F 28.0 °F 21.0 °F 55% 30.09 in 10.0 mi West 11.5 mph - N/A   Overcast
4:52 AM 35.1 °F 26.4 °F 21.9 °F 59% 30.11 in 10.0 mi WSW 12.7 mph - N/A   Clear
5:52 AM 35.1 °F 27.9 °F 21.9 °F 59% 29.99 in 10.0 mi WSW 9.2 mph - N/A   Clear
6:52 AM 35.1 °F 26.4 °F 21.0 °F 57% 30.01 in 10.0 mi WSW 12.7 mph 19.6 mph N/A   Clear
7:52 AM 37.0 °F 29.8 °F 21.9 °F 54% 30.02 in 10.0 mi West 10.4 mph - N/A   Clear
8:52 AM 42.1 °F 35.2 °F 23.0 °F 47% 30.04 in 10.0 mi West 12.7 mph - N/A   Clear
9:52 AM 46.0 °F 41.0 °F 21.0 °F 37% 30.04 in 10.0 mi WSW 10.4 mph - N/A   Clear
10:52 AM 48.9 °F - 17.1 °F 28% 30.06 in 10.0 mi West 10.4 mph 17.3 mph N/A   Clear
11:52 AM 50.0 °F - 18.0 °F 28% 30.06 in 10.0 mi WSW 11.5 mph 20.7 mph N/A   Mostly Cloudy
12:52 PM 46.9 °F - 21.0 °F 36% 30.06 in 10.0 mi SW 20.7 mph 29.9 mph N/A   Overcast
1:52 PM 50.0 °F - 21.9 °F 33% 30.05 in 10.0 mi WSW 18.4 mph 31.1 mph N/A   Overcast
2:52 PM 51.1 °F - 19.0 °F 28% 30.04 in 10.0 mi West 6.9 mph - N/A   Overcast
3:14 PM 51.8 °F - 15.8 °F 24% 30.01 in 10.0 mi WSW 21.9 mph 25.3 mph N/A   Mostly Cloudy
3:52 PM 50.0 °F - 19.0 °F 29% 30.03 in 10.0 mi WSW 17.3 mph - N/A   Clear
4:52 PM 50.0 °F - 17.1 °F 27% 30.03 in 10.0 mi WNW 13.8 mph - N/A   Clear
5:52 PM 46.9 °F - 17.1 °F 30% 30.04 in 10.0 mi WNW 15.0 mph 20.7 mph N/A   Clear
6:52 PM 45.0 °F 40.6 °F 19.0 °F 36% 30.03 in 10.0 mi West 8.1 mph - N/A   Scattered Clouds
7:52 PM 41.0 °F 34.3 °F 23.0 °F 49% 30.04 in 10.0 mi West 11.5 mph - N/A   Scattered Clouds
8:52 PM 41.0 °F 32.5 °F 23.0 °F 49% 30.04 in 10.0 mi West 17.3 mph - N/A   Scattered Clouds
9:52 PM 39.9 °F 32.9 °F 23.0 °F 51% 30.06 in 10.0 mi West 11.5 mph - N/A   Clear
10:52 PM 37.9 °F 32.7 °F 24.1 °F 57% 30.08 in 10.0 mi West 6.9 mph - N/A   Partly Cloudy
11:52 PM 37.9 °F 35.5 °F 19.9 °F 48% 30.08 in 10.0 mi NW 3.5 mph - N/A   Mostly Cloudy